RH
83 82 85 88 84 81 82 82 82 85 83 77 71 71 74 78 83 85 81 84 69 68 69 76 77 77 76 72 71 72 74 75 76
86 85 84 84 86 81 80 81 81 86 86 77 73 75 78 79 82 82 90 84 70 67 68 74 76 76 77 73 72 72 74 75 75
87 89 87 87 85 83 79 81 82 84 85 81 83 83 77 74 78 79 86 78 67 70 68 73 76 76 76 77 75 72 74 76 77
80 85 87 88 88 89 89 82 82 83 84 86 86 81 84 82 83 74 85 74 63 70 70 72 75 76 77 78 79 79 74 78 77
72 76 81 83 85 90 90 91 91 81 85 88 88 88 89 88 86 85 85 73 70 70 73 72 73 77 77 74 74 80 80 77 79
64 69 73 76 78 85 88 90 92 94 91 90 95 93 93 91 92 89 78 68 71 73 74 75 75 77 78 76 75 80 81 80 77
61 68 68 70 72 71 79 83 86 91 98 98 96 97 92 90 91 91 81 71 63 75 75 75 76 78 78 79 80 81 82 82 82
63 65 64 61 61 58 63 76 79 86 86 92 98 96 94 93 89 85 82 77 62 71 77 75 77 78 78 77 77 77 82 83 84
66 64 64 58 55 56 60 64 64 72 74 79 89 96 95 94 88 92 88 84 68 68 75 76 77 77 77 76 77 80 82 83 84
67 67 64 61 55 56 56 58 58 61 65 66 77 85 96 94 86 93 90 88 84 72 69 75 76 77 76 75 78 79 80 81 82
74 72 72 71 71 61 54 59 61 59 64 61 62 70 84 94 87 88 92 90 88 83 72 73 74 74 76 76 76 78 79 81 82
77 79 80 80 80 75 71 59 62 69 66 73 61 56 69 82 87 86 91 89 91 88 78 76 75 75 74 76 75 75 79 81 82
82 82 82 82 83 77 79 80 68 75 76 78 79 72 61 68 85 85 88 91 87 89 87 86 82 78 78 74 75 74 75 81 83
80 77 81 84 86 88 84 80 84 82 73 60 56 73 75 62 66 84 89 90 90 90 89 89 92 88 81 76 73 75 73 79 81
76 78 78 83 86 86 85 87 85 85 90 57 56 59 63 64 64 72 77 86 90 90 92 90 94 93 87 82 75 71 75 75 78
74 80 79 80 85 87 80 86 90 87 88 96 86 86 88 76 77 79 84 82 82 91 91 89 95 96 90 87 83 77 75 76 76
62 80 81 82 86 85 87 90 92 90 93 94 91 95 89 93 91 88 92 89 85 82 86 86 90 92 91 91 88 85 79 78 74
81 80 81 83 86 90 89 90 92 96 91 87 95 93 95 91 86 80 88 92 94 87 83 79 79 83 86 92 90 90 88 81 78
81 82 82 83 86 88 88 72 89 91 92 89 68 87 93 92 91 76 71 61 82 87 87 83 80 77 79 87 89 90 89 86 76
78 82 83 84 87 86 87 88 90 90 94 94 93 91 88 87 97 94 82 45 47 45 62 74 77 74 77 79 83 89 87 84 78
Wind_Speed
12 12 14 13 7 2 10 10 10 10 10 13 12 10 9 8 6 5 4 4 12 12 11 11 11 13 14 14 13 14 14 14 15
13 11 11 11 13 6 6 9 9 8 8 10 12 9 7 4 4 5 4 3 11 11 10 10 10 12 14 15 13 14 14 14 14
14 12 12 11 11 10 2 8 9 8 7 8 7 7 7 3 3 4 3 5 7 9 9 10 10 11 13 14 14 13 12 13 14
13 14 12 11 12 13 12 2 7 7 7 6 5 6 4 3 2 2 2 5 5 5 7 8 8 11 12 13 14 13 12 12 13
15 14 14 13 12 13 12 11 10 5 4 4 5 5 3 1 0 1 1 4 5 8 7 6 7 10 11 11 12 14 13 12 13
9 13 13 14 12 13 12 13 13 10 4 3 7 6 2 1 2 3 5 2 6 6 6 5 9 8 9 10 10 12 13 12 12
8 10 13 13 14 13 14 15 13 9 4 2 5 3 3 1 2 2 8 6 4 4 5 4 9 9 7 8 10 10 12 12 12
5 5 5 6 12 6 9 8 5 6 4 4 2 1 3 2 1 3 5 8 4 3 4 4 6 9 9 6 8 9 10 11 11
6 5 6 6 6 7 6 5 6 6 6 5 5 1 3 2 2 4 6 7 6 6 5 5 6 8 10 9 5 8 8 10 10
5 5 5 5 6 6 6 5 5 6 6 6 6 5 4 4 3 3 8 9 7 9 7 7 8 8 9 9 7 6 7 7 8
5 5 5 5 5 6 5 5 5 5 5 5 6 6 6 4 5 3 4 8 8 8 11 11 11 11 11 10 9 8 6 7 6
5 5 5 5 5 6 5 6 4 4 4 4 5 5 5 5 4 4 4 4 7 8 12 11 13 13 13 11 10 8 8 7 7
5 5 5 5 5 5 5 4 5 4 4 4 4 4 5 6 4 4 4 4 4 6 10 10 10 12 13 12 11 9 8 9 9
5 5 5 5 4 5 4 3 3 3 5 6 5 3 4 6 5 5 5 6 5 4 5 9 8 9 13 14 13 12 10 10 10
5 4 4 4 3 4 5 4 3 2 5 7 7 6 6 5 5 6 6 6 6 6 6 4 4 9 12 13 14 15 14 12 11
5 4 4 4 4 4 5 3 4 3 5 4 4 4 6 7 6 5 7 7 8 7 6 5 4 4 11 12 12 14 16 16 13
5 4 4 5 4 6 5 5 3 3 5 3 2 4 5 4 4 5 5 7 4 7 8 8 7 6 5 8 12 12 15 19 17
5 5 4 4 3 3 4 4 6 3 3 5 0 2 2 4 4 5 3 4 4 4 6 8 9 8 7 7 10 13 13 15 19
4 4 4 4 3 4 4 5 3 3 3 3 4 1 0 2 6 4 4 6 6 3 2 5 8 9 8 9 10 12 13 16 19
4 4 4 3 2 3 4 4 4 2 2 1 3 2 2 3 3 4 6 6 4 7 6 6 6 8 8 8 10 15 17 19 20
Wind_Direction
68 71 55 40 15 122 146 147 149 150 142 134 140 128 111 101 98 65 55 75 84 76 70 60 68 87 88 78 77 72 64 56 52
51 53 59 44 38 17 161 145 162 161 145 134 143 140 123 110 109 100 78 55 88 86 83 70 68 81 84 86 78 75 71 68 65
46 45 47 39 34 33 327 162 169 176 158 138 132 156 140 111 91 90 92 79 82 90 92 88 82 80 82 83 84 82 74 67 74
44 42 43 38 42 37 31 260 178 182 178 145 120 137 131 116 92 44 56 116 83 99 108 106 93 88 81 82 83 81 82 68 75
39 35 34 24 39 39 40 35 35 182 184 170 150 83 78 12 332 348 272 141 92 128 128 120 115 99 94 87 86 87 79 78 68
32 34 30 28 30 41 38 39 29 16 125 132 94 87 58 336 314 314 289 227 129 142 131 130 139 121 109 100 92 88 88 78 78
28 35 28 21 18 24 31 33 30 38 23 6 115 134 118 83 294 287 297 290 178 155 150 158 147 138 129 121 109 99 94 89 77
21 16 17 12 15 12 8 11 25 9 27 14 338 170 161 185 209 266 269 287 219 191 180 190 169 151 142 136 124 114 103 97 90
25 24 11 17 5 5 14 4 355 5 13 13 350 242 269 234 213 216 238 254 254 226 210 211 198 176 158 152 146 129 124 115 107
33 17 19 20 7 5 0 5 4 356 356 2 358 338 256 257 268 230 220 224 231 221 222 219 216 199 180 165 164 153 140 132 126
34 34 20 19 4 1 355 356 358 350 347 348 351 330 325 246 233 231 250 237 238 237 218 208 219 215 201 183 177 172 160 149 145
28 32 31 10 360 359 5 1 347 2 343 335 332 316 327 328 263 232 230 220 237 253 264 215 213 216 212 200 189 191 179 170 158
35 33 24 1 5 9 2 10 347 355 351 330 308 304 300 299 301 246 232 220 225 225 240 261 239 217 218 209 203 197 210 188 172
34 31 13 360 7 18 2 353 5 343 344 319 306 270 265 271 285 282 227 224 209 215 218 242 250 246 219 216 210 200 210 218 197
30 28 19 10 9 8 3 10 336 351 343 309 295 281 260 242 237 256 237 218 205 210 217 207 236 234 223 229 215 216 202 220 227
35 20 11 10 25 10 5 340 9 0 341 308 323 284 245 232 223 223 236 221 211 194 204 214 211 217 218 218 229 226 213 207 224
29 18 12 17 10 11 8 18 356 358 5 19 287 336 326 7 260 225 223 224 222 217 198 213 206 208 209 217 218 222 227 213 214
12 10 9 10 19 12 358 18 31 6 334 11 24 352 332 321 332 11 292 259 208 217 224 221 218 212 208 207 217 215 216 226 219
14 11 6 4 0 11 351 18 360 17 7 331 15 336 234 5 327 323 346 350 359 327 261 225 225 220 216 212 210 210 216 218 222
4 7 359 1 0 355 353 353 347 350 338 334 348 340 302 251 225 288 320 336 332 318 307 304 253 235 227 218 221 211 214 221 223